Tracking 29892 objects as of 21-Nov-2024
HD Live streaming from Space Station
objects crossing your sky now

SL-16 DEB

Track SL-16 DEB now!
10-day predictions


NORAD ID: 22618
Int'l Code: 1993-016AC
Perigee: 846.7 km
Apogee: 1,073.5 km
Inclination: 71.0 °
Period: 104.1 minutes
Semi major axis: 7331 km
RCS: 0.0532 m2 (small)
Launch date: March 26, 1993
Source: Commonwealth of Independent States (former USSR) (CIS)
Launch site: TYURATAM MISSILE AND SPACE COMPLEX (TTMTR)

Note: This is SATELLITE DEBRIS
Your satellite tracking list
Your tracking list is empty




NASA's NSSDC Master Catalog

Two Line Element Set (TLE):
1 22618U 93016AC  24325.12448916  .00000447  00000-0  40849-3 0  9992
2 22618  70.9938   5.5508 0154704  47.2166 314.1830 13.83082110595092
Source of the keplerian elements: AFSPC